CZ-6A DEB

Satellite information

Favourite Embed

Satellite Type and Status

DEBRISIN ORBIT

Key statistics

Satellite CZ-6A DEB at a glance.

Uptime

1129

Days in orbit

Revolutions

≈ 14.1

Per day

Orbit

SSO

Sun Synchronous Orbit

Inclination

98.8

Latest

Satellite identification and parameters

Extended collection of information and parameters for CZ-6A DEB.

Object identification

Identified? True

Debris? True

Object name: CZ-6A DEB

International designator: 2022-151CF

Object number (NORAD): 54336

Object ID (CCSDS): 54336

Country: PEOPLES REPUBLIC OF CHINA (PRC)

Current information (Y/N): Y

RCS size: SMALL

Orbital parameters

Period: 102.242 minutes

Inclination: 98.8428 deg

SMA: 7242.919 km

Apoapsis: 907.222 km

Periapsis: 822.347 km

RAAN: 339.828 deg

Eccentricy: 0.0058592

Argument of periapsis: 165.0277 deg

Mean anomaly: 195.2644 deg

Mean motion: 14.08420343 rev/day

Mean motion (dot): 0.00000683 rev/day2

B* drag term: 0.00041693 1/REarth

Two-line elements (TLE)

Creation date: Dec. 12, 2025, 7:16 a.m.

Reference frame: TEME

Reference center: EARTH

Epoch: Dec. 11, 2025, 10:47 p.m. UTC

TLE line 0: 0 CZ-6A DEB

TLE line 1: 1 54336U 22151CF 25345.94970748 .00000683 00000-0 41693-3 0 9992

TLE line 2: 2 54336 98.8428 339.8280 0058592 165.0277 195.2644 14.08420343157825

Live tracking on map

Real-time ground track for satellite CZ-6A DEB.

In-orbit conjunctions

A list of the most updated potential collisions computed for object CZ-6A DEB.

Target Orbit TCA Probability of collision Miss distance Type
FENGYUN 1C DEB SSO 2024-12-27 19:08:53 0.0001789827 378.0 (m) DEBRIS

Associated space launch

Chinese satellite reported for atmospheric/ocean/environmental/spatial parameter research purposes, details TBD.

CZ-6A DEB was lifted into orbit during the mission ‘Long March 6A | Yunhai 3’, on board a Long March 6A space rocket.

The launch took place on Nov. 11, 2022, 10:52 p.m. from Launch Complex 9A.

For more information about the launch, click the button.

Launch to space Long March 6A | Yunhai 3
Long March 6A | Yunhai 3

Agency: N/A

Status: Launch Successful

Launch date: Nov. 11, 2022, 10:52 p.m. UTC

Rocket: Long March 6A

Launch pad: Launch Complex 9A

Location: Taiyuan Satellite Launch Center, People's Republic of China

...

Latest news about this satellite

There are no fresh news available about this satellite. Check back as we update our databases every day.


Newsletter sign-up

Weekly statistics, charts and insights to help you stay on top of the space industry.